| time (UTC) | temp C | wind direction | speed KPH | gust KPH | rain 1hr cm | rain 24hr cm | rain mn cm | humidity % | barometer mb |
| 20260510115517 | 2 | 270 | 3.2 | 6.4 | 0.00 | 0.00 | 0.00 | 86 | 1006.0 |
| 20260510114517 | 2 | 248 | 1.6 | 3.2 | 0.00 | 0.00 | 0.00 | 86 | 1005.8 |
| 20260510113517 | 2 | 248 | 1.6 | 3.2 | 0.00 | 0.00 | 0.00 | 86 | 1005.7 |
| 20260510112517 | 1 | 248 | 1.6 | 3.2 | 0.00 | 0.00 | 0.00 | 86 | 1005.4 |
| 20260510111517 | 1 | 248 | 1.6 | 3.2 | 0.00 | 0.00 | 0.00 | 86 | 1005.3 |
| 20260510110517 | 1 | 248 | 1.6 | 3.2 | 0.00 | 0.00 | 0.00 | 85 | 1005.2 |
| 20260510105537 | 1 | 0.0 | 3.2 | 0.00 | 0.00 | 0.00 | 85 | 1005.1 | |
| 20260510104517 | 2 | 0.0 | 3.2 | 0.00 | 0.00 | 0.00 | 84 | 1005.0 | |
| 20260510103537 | 2 | 248 | 1.6 | 4.8 | 0.00 | 0.00 | 0.00 | 85 | 1004.6 |
| 20260510102517 | 2 | 0.0 | 3.2 | 0.00 | 0.00 | 0.00 | 85 | 1004.6 | |
| 20260510101517 | 2 | 270 | 3.2 | 6.4 | 0.00 | 0.00 | 0.00 | 85 | 1004.5 |
| 20260510100517 | 1 | 270 | 1.6 | 4.8 | 0.00 | 0.00 | 0.00 | 85 | 1004.5 |
| 20260510095517 | 1 | 248 | 1.6 | 4.8 | 0.00 | 0.00 | 0.00 | 85 | 1004.4 |
| 20260510094517 | 1 | 270 | 1.6 | 4.8 | 0.00 | 0.00 | 0.00 | 85 | 1004.2 |
| 20260510093517 | 1 | 0.0 | 1.6 | 0.00 | 0.00 | 0.00 | 85 | 1003.9 | |
| 20260510092517 | 1 | 0.0 | 0.0 | 0.00 | 0.00 | 0.00 | 86 | 1003.8 | |
| 20260510091517 | 1 | 270 | 1.6 | 4.8 | 0.00 | 0.00 | 0.00 | 87 | 1003.7 |
| 20260510091018 | 1 | 0.0 | 3.2 | 0.00 | 0.00 | 0.00 | 87 | 1003.7 | |
| 20260510090017 | 1 | 0.0 | 1.6 | 0.00 | 0.00 | 0.00 | 86 | 1003.5 | |
| 20260510085017 | 1 | 0.0 | 3.2 | 0.00 | 0.00 | 0.00 | 86 | 1003.4 | |
| 20260510084017 | 1 | 248 | 1.6 | 3.2 | 0.00 | 0.00 | 0.00 | 87 | 1003.3 |
| 20260510083017 | 1 | 270 | 3.2 | 4.8 | 0.00 | 0.00 | 0.00 | 86 | 1003.2 |
| 20260510082017 | 1 | 0.0 | 3.2 | 0.00 | 0.00 | 0.00 | 85 | 1003.2 | |
| 20260510081017 | 1 | 0.0 | 3.2 | 0.00 | 0.00 | 0.00 | 85 | 1003.1 | |
| 20260510080017 | 2 | 315 | 1.6 | 8.0 | 0.00 | 0.00 | 0.00 | 84 | 1003.1 |
| 20260510075017 | 2 | 315 | 1.6 | 6.4 | 0.00 | 0.00 | 0.00 | 83 | 1002.9 |
| 20260510074017 | 2 | 315 | 1.6 | 6.4 | 0.00 | 0.00 | 0.00 | 83 | 1002.9 |
| 20260510073017 | 2 | 315 | 3.2 | 9.7 | 0.00 | 0.00 | 0.00 | 83 | 1002.7 |
| 20260510072037 | 2 | 315 | 3.2 | 6.4 | 0.00 | 0.00 | 0.00 | 83 | 1002.7 |
| 20260510071017 | 2 | 315 | 1.6 | 6.4 | 0.00 | 0.00 | 0.00 | 82 | 1002.7 |
| 20260510070017 | 2 | 315 | 4.8 | 12.9 | 0.00 | 0.00 | 0.00 | 81 | 1002.7 |
| 20260510065017 | 2 | 315 | 3.2 | 8.0 | 0.00 | 0.00 | 0.00 | 80 | 1002.7 |
| 20260510064017 | 3 | 315 | 4.8 | 8.0 | 0.00 | 0.00 | 0.00 | 79 | 1002.7 |
| 20260510063037 | 3 | 315 | 4.8 | 12.9 | 0.00 | 0.00 | 0.00 | 77 | 1002.6 |
| 20260510062017 | 3 | 293 | 3.2 | 8.0 | 0.00 | 0.00 | 0.00 | 77 | 1002.5 |
| 20260510061037 | 3 | 315 | 4.8 | 12.9 | 0.00 | 0.00 | 0.00 | 76 | 1002.4 |
| 20260510060017 | 3 | 315 | 3.2 | 8.0 | 0.00 | 0.00 | 0.00 | 75 | 1002.4 |
| 20260510055017 | 3 | 315 | 1.6 | 6.4 | 0.00 | 0.00 | 0.00 | 75 | 1002.2 |
| 20260510054017 | 3 | 315 | 3.2 | 8.0 | 0.00 | 0.00 | 0.00 | 75 | 1002.4 |
| 20260510053017 | 3 | 315 | 3.2 | 11.3 | 0.00 | 0.00 | 0.00 | 75 | 1002.3 |
| 20260510052037 | 3 | 315 | 3.2 | 8.0 | 0.00 | 0.00 | 0.00 | 74 | 1002.3 |
| 20260510051017 | 3 | 315 | 1.6 | 4.8 | 0.00 | 0.00 | 0.00 | 75 | 1002.2 |
| 20260510050017 | 3 | 270 | 3.2 | 6.4 | 0.00 | 0.00 | 0.00 | 76 | 1002.2 |
| 20260510045017 | 3 | 248 | 1.6 | 4.8 | 0.00 | 0.00 | 0.00 | 76 | 1002.2 |
| 20260510044017 | 2 | 270 | 1.6 | 3.2 | 0.00 | 0.00 | 0.00 | 76 | 1002.2 |
| 20260510043017 | 2 | 270 | 1.6 | 3.2 | 0.00 | 0.00 | 0.00 | 76 | 1002.0 |
| 20260510042017 | 2 | 0.0 | 3.2 | 0.00 | 0.00 | 0.00 | 75 | 1002.0 | |
| 20260510041017 | 2 | 270 | 1.6 | 3.2 | 0.00 | 0.00 | 0.00 | 75 | 1001.8 |
| 20260510040017 | 2 | 248 | 3.2 | 6.4 | 0.00 | 0.00 | 0.00 | 76 | 1001.8 |
| 20260510035017 | 2 | 248 | 1.6 | 3.2 | 0.00 | 0.00 | 0.00 | 76 | 1001.8 |
| 20260510034018 | 2 | 248 | 1.6 | 3.2 | 0.00 | 0.00 | 0.00 | 77 | 1001.7 |
| 20260510033017 | 3 | 0.0 | 0.0 | 0.00 | 0.00 | 0.00 | 76 | 1001.5 | |
| 20260510032037 | 3 | 0.0 | 0.0 | 0.00 | 0.00 | 0.00 | 74 | 1001.6 | |
| 20260510031017 | 3 | 0.0 | 0.0 | 0.00 | 0.00 | 0.00 | 73 | 1001.6 | |
| 20260510030019 | 3 | 0.0 | 1.6 | 0.00 | 0.00 | 0.00 | 73 | 1001.7 | |
| 20260510025517 | 3 | 248 | 1.6 | 4.8 | 0.00 | 0.00 | 0.00 | 73 | 1001.8 |
| 20260510024517 | 3 | 315 | 1.6 | 3.2 | 0.00 | 0.00 | 0.00 | 73 | 1001.8 |
| 20260510023517 | 3 | 315 | 3.2 | 4.8 | 0.00 | 0.00 | 0.00 | 72 | 1001.9 |
| 20260510022517 | 3 | 315 | 1.6 | 4.8 | 0.00 | 0.00 | 0.00 | 72 | 1001.8 |
| 20260510021537 | 3 | 0.0 | 1.6 | 0.00 | 0.00 | 0.00 | 73 | 1001.1 | |
| 20260510020517 | 3 | 0.0 | 1.6 | 0.00 | 0.00 | 0.00 | 72 | 1000.8 | |
| 20260510015535 | 3 | 0.0 | 0.0 | 0.00 | 0.00 | 0.00 | 71 | 1000.8 | |
| 20260510014517 | 3 | 0.0 | 1.6 | 0.00 | 0.00 | 0.00 | 71 | 1000.7 | |
| 20260510013517 | 3 | 293 | 1.6 | 3.2 | 0.00 | 0.00 | 0.00 | 70 | 1000.4 |
| 20260510012517 | 3 | 315 | 1.6 | 8.0 | 0.00 | 0.00 | 0.00 | 70 | 1000.4 |
| 20260510011517 | 4 | 315 | 1.6 | 6.4 | 0.00 | 0.00 | 0.00 | 69 | 1000.4 |
| 20260510010517 | 4 | 338 | 1.6 | 4.8 | 0.00 | 0.00 | 0.00 | 67 | 1000.3 |
| 20260510005517 | 5 | 315 | 3.2 | 8.0 | 0.00 | 0.00 | 0.00 | 64 | 1000.1 |
| 20260510004517 | 5 | 338 | 3.2 | 8.0 | 0.00 | 0.00 | 0.00 | 63 | 999.9 |
| 20260510003538 | 5 | 315 | 3.2 | 8.0 | 0.00 | 0.00 | 0.00 | 62 | 999.8 |
| 20260510002518 | 5 | 315 | 6.4 | 11.3 | 0.00 | 0.00 | 0.00 | 61 | 999.7 |
| 20260510001517 | 5 | 315 | 3.2 | 8.0 | 0.00 | 0.00 | 0.00 | 60 | 999.7 |
| 20260510000517 | 5 | 315 | 4.8 | 11.3 | 0.00 | 0.00 | 0.00 | 59 | 999.4 |
| 20260509235517 | 5 | 315 | 4.8 | 11.3 | 0.00 | 0.00 | 0.00 | 59 | 999.3 |
| 20260509234517 | 5 | 315 | 4.8 | 11.3 | 0.00 | 0.00 | 0.00 | 59 | 999.2 |
| 20260509233517 | 5 | 270 | 9.7 | 22.5 | 0.00 | 0.00 | 0.00 | 58 | 999.1 |
| 20260509232517 | 5 | 293 | 6.4 | 17.7 | 0.00 | 0.00 | 0.00 | 56 | 999.0 |
| 20260509231517 | 5 | 315 | 9.7 | 25.7 | 0.00 | 0.00 | 0.00 | 55 | 998.9 |
| 20260509230518 | 6 | 315 | 8.0 | 14.5 | 0.00 | 0.00 | 0.00 | 55 | 998.8 |
| 20260509225517 | 6 | 315 | 8.0 | 19.3 | 0.00 | 0.00 | 0.00 | 55 | 998.7 |
| 20260509224517 | 6 | 315 | 9.7 | 22.5 | 0.00 | 0.00 | 0.00 | 53 | 998.7 |
| 20260509223517 | 6 | 315 | 8.0 | 16.1 | 0.00 | 0.00 | 0.00 | 53 | 998.6 |
| 20260509222517 | 6 | 315 | 8.0 | 17.7 | 0.00 | 0.00 | 0.00 | 51 | 998.5 |
| 20260509221538 | 7 | 293 | 6.4 | 19.3 | 0.00 | 0.00 | 0.00 | 51 | 998.4 |
| 20260509220557 | 7 | 315 | 8.0 | 24.1 | 0.00 | 0.00 | 0.00 | 50 | 998.2 |
| 20260509215517 | 7 | 315 | 6.4 | 16.1 | 0.00 | 0.00 | 0.00 | 50 | 998.2 |
| 20260509214517 | 7 | 315 | 6.4 | 20.9 | 0.00 | 0.00 | 0.00 | 50 | 998.1 |
| 20260509213537 | 7 | 315 | 4.8 | 19.3 | 0.00 | 0.00 | 0.00 | 49 | 998.0 |
| 20260509212517 | 7 | 315 | 9.7 | 17.7 | 0.00 | 0.00 | 0.00 | 51 | 997.8 |
| 20260509211557 | 7 | 315 | 9.7 | 22.5 | 0.00 | 0.00 | 0.00 | 50 | 997.6 |
| 20260509210537 | 7 | 315 | 8.0 | 19.3 | 0.00 | 0.00 | 0.00 | 51 | 997.6 |
| 20260509205618 | 6 | 315 | 6.4 | 12.9 | 0.00 | 0.00 | 0.00 | 57 | 997.5 |
| 20260509204517 | 6 | 315 | 4.8 | 16.1 | 0.00 | 0.00 | 0.00 | 60 | 997.4 |
| 20260509203517 | 6 | 315 | 6.4 | 16.1 | 0.00 | 0.00 | 0.00 | 60 | 997.3 |
| 20260509202517 | 6 | 315 | 6.4 | 17.7 | 0.00 | 0.00 | 0.00 | 59 | 997.1 |
| 20260509201517 | 6 | 315 | 4.8 | 14.5 | 0.00 | 0.00 | 0.00 | 59 | 997.0 |
| 20260509200517 | 6 | 315 | 4.8 | 14.5 | 0.00 | 0.00 | 0.00 | 60 | 996.9 |
| 20260509195537 | 6 | 315 | 8.0 | 19.3 | 0.00 | 0.00 | 0.00 | 60 | 996.8 |
| 20260509194517 | 6 | 315 | 6.4 | 12.9 | 0.00 | 0.00 | 0.00 | 57 | 996.7 |
| 20260509193537 | 7 | 315 | 6.4 | 14.5 | 0.00 | 0.00 | 0.00 | 55 | 996.6 |
| 20260509192517 | 7 | 315 | 6.4 | 12.9 | 0.00 | 0.00 | 0.00 | 51 | 996.4 |
| 20260509191517 | 7 | 315 | 4.8 | 9.7 | 0.00 | 0.00 | 0.00 | 50 | 996.4 |
| 20260509190517 | 7 | 293 | 1.6 | 4.8 | 0.00 | 0.00 | 0.00 | 51 | 996.2 |
| 20260509185517 | 7 | 315 | 4.8 | 9.7 | 0.00 | 0.00 | 0.00 | 50 | 996.0 |
| 20260509184517 | 8 | 315 | 6.4 | 11.3 | 0.00 | 0.00 | 0.00 | 47 | 995.9 |
| 20260509183517 | 9 | 45 | 3.2 | 12.9 | 0.00 | 0.00 | 0.00 | 47 | 995.6 |
| 20260509182517 | 8 | 315 | 8.0 | 17.7 | 0.00 | 0.00 | 0.00 | 50 | 995.5 |
| 20260509181537 | 8 | 315 | 4.8 | 9.7 | 0.00 | 0.00 | 0.00 | 52 | 995.2 |
| 20260509180517 | 7 | 315 | 4.8 | 11.3 | 0.00 | 0.00 | 0.00 | 54 | 995.1 |
| 20260509175517 | 7 | 315 | 6.4 | 12.9 | 0.00 | 0.00 | 0.00 | 55 | 994.8 |
| 20260509174638 | 7 | 315 | 6.4 | 12.9 | 0.00 | 0.00 | 0.00 | 54 | 994.5 |
| 20260509173517 | 7 | 315 | 6.4 | 12.9 | 0.00 | 0.00 | 0.00 | 54 | 994.4 |
| 20260509172517 | 7 | 315 | 6.4 | 14.5 | 0.00 | 0.00 | 0.00 | 53 | 994.0 |
| 20260509171517 | 8 | 315 | 8.0 | 17.7 | 0.00 | 0.00 | 0.00 | 52 | 993.8 |
| 20260509170517 | 8 | 315 | 8.0 | 14.5 | 0.00 | 0.00 | 0.00 | 49 | 993.5 |
| 20260509165517 | 8 | 315 | 8.0 | 14.5 | 0.00 | 0.00 | 0.00 | 49 | 993.3 |
| 20260509164517 | 7 | 315 | 9.7 | 19.3 | 0.00 | 0.00 | 0.00 | 51 | 993.2 |
| 20260509163517 | 7 | 315 | 11.3 | 22.5 | 0.00 | 0.00 | 0.00 | 51 | 993.0 |
| 20260509162517 | 7 | 315 | 9.7 | 19.3 | 0.00 | 0.00 | 0.00 | 50 | 992.8 |
| 20260509161537 | 7 | 338 | 9.7 | 27.4 | 0.00 | 0.00 | 0.00 | 51 | 992.7 |
| 20260509160517 | 7 | 315 | 6.4 | 17.7 | 0.00 | 0.00 | 0.00 | 51 | 992.6 |
| 20260509155557 | 7 | 315 | 9.7 | 22.5 | 0.00 | 0.00 | 0.00 | 51 | 992.3 |
| 20260509154517 | 7 | 315 | 8.0 | 19.3 | 0.00 | 0.00 | 0.00 | 52 | 992.2 |
| 20260509153517 | 6 | 315 | 12.9 | 24.1 | 0.00 | 0.00 | 0.00 | 53 | 992.1 |
| 20260509152517 | 6 | 315 | 11.3 | 24.1 | 0.00 | 0.00 | 0.00 | 53 | 992.0 |
| 20260509151517 | 6 | 315 | 11.3 | 29.0 | 0.00 | 0.00 | 0.00 | 54 | 991.8 |
| 20260509150517 | 6 | 293 | 8.0 | 19.3 | 0.00 | 0.00 | 0.00 | 55 | 991.6 |
| 20260509145517 | 6 | 315 | 9.7 | 22.5 | 0.00 | 0.00 | 0.00 | 52 | 991.6 |
| 20260509144517 | 6 | 315 | 11.3 | 19.3 | 0.00 | 0.00 | 0.00 | 51 | 991.3 |
| 20260509143517 | 7 | 315 | 6.4 | 12.9 | 0.00 | 0.00 | 0.00 | 50 | 991.1 |
| 20260509142517 | 6 | 315 | 4.8 | 14.5 | 0.00 | 0.00 | 0.00 | 51 | 990.9 |
| 20260509141517 | 6 | 315 | 9.7 | 20.9 | 0.00 | 0.00 | 0.00 | 52 | 990.8 |
| 20260509140517 | 6 | 315 | 8.0 | 19.3 | 0.00 | 0.00 | 0.00 | 52 | 990.6 |
| 20260509135517 | 5 | 270 | 6.4 | 14.5 | 0.00 | 0.00 | 0.00 | 58 | 990.5 |
| 20260509134517 | 5 | 293 | 6.4 | 19.3 | 0.00 | 0.00 | 0.00 | 58 | 990.5 |
| 20260509133517 | 5 | 315 | 9.7 | 17.7 | 0.00 | 0.00 | 0.00 | 56 | 990.4 |
| 20260509132537 | 5 | 315 | 6.4 | 16.1 | 0.00 | 0.00 | 0.00 | 57 | 990.3 |
| 20260509131517 | 5 | 315 | 8.0 | 20.9 | 0.00 | 0.00 | 0.00 | 54 | 990.3 |
| 20260509130517 | 6 | 315 | 6.4 | 16.1 | 0.00 | 0.00 | 0.00 | 52 | 990.3 |
| 20260509125517 | 6 | 315 | 8.0 | 20.9 | 0.00 | 0.00 | 0.00 | 52 | 990.2 |
| 20260509124517 | 6 | 315 | 6.4 | 11.3 | 0.00 | 0.00 | 0.00 | 52 | 990.0 |
| 20260509123517 | 6 | 270 | 8.0 | 16.1 | 0.00 | 0.00 | 0.00 | 53 | 990.0 |
| 20260509122543 | 6 | 315 | 4.8 | 12.9 | 0.00 | 0.00 | 0.00 | 57 | 990.0 |
| 20260509121538 | 5 | 315 | 4.8 | 11.3 | 0.00 | 0.00 | 0.00 | 59 | 989.9 |
| 20260509120517 | 5 | 315 | 6.4 | 16.1 | 0.00 | 0.00 | 0.00 | 61 | 989.9 |